TimeMST,TemperatureF,Dew PointF,Humidity,Sea Level PressureIn,VisibilityMPH,Wind Direction,Wind SpeedMPH,Gust SpeedMPH,PrecipitationIn,Events,Conditions,WindDirDegrees,DateUTC
12:53 AM,46.9,27.0,46,30.11,10.0,Calm,Calm,-,N/A,,Clear,0,2013-01-19 07:53:00
1:53 AM,44.1,26.1,49,30.12,10.0,Calm,Calm,-,N/A,,Clear,0,2013-01-19 08:53:00
2:53 AM,45.0,25.0,46,30.12,10.0,Calm,Calm,-,N/A,,Clear,0,2013-01-19 09:53:00
3:53 AM,43.0,27.0,53,30.12,10.0,Calm,Calm,-,N/A,,Clear,0,2013-01-19 10:53:00
4:53 AM,43.0,27.0,53,30.13,10.0,Calm,Calm,-,N/A,,Clear,0,2013-01-19 11:53:00
5:53 AM,42.1,27.0,55,30.14,10.0,Calm,Calm,-,N/A,,Clear,0,2013-01-19 12:53:00
6:53 AM,42.1,27.0,55,30.16,10.0,Calm,Calm,-,N/A,,Clear,0,2013-01-19 13:53:00
7:53 AM,44.1,25.0,47,30.19,10.0,Calm,Calm,-,N/A,,Clear,0,2013-01-19 14:53:00
8:53 AM,50.0,27.0,41,30.20,10.0,Calm,Calm,-,N/A,,Clear,0,2013-01-19 15:53:00
9:53 AM,55.9,25.0,30,30.22,10.0,Calm,Calm,-,N/A,,Clear,0,2013-01-19 16:53:00
10:53 AM,60.1,24.1,25,30.22,10.0,SSW,3.5,-,N/A,,Clear,200,2013-01-19 17:53:00
11:53 AM,64.9,23.0,20,30.19,10.0,Calm,Calm,-,N/A,,Clear,0,2013-01-19 18:53:00
12:53 PM,69.1,23.0,18,30.15,10.0,Calm,Calm,-,N/A,,Clear,0,2013-01-19 19:53:00
1:53 PM,71.1,21.9,16,30.12,10.0,Variable,3.5,-,N/A,,Clear,0,2013-01-19 20:53:00
2:53 PM,73.0,21.0,14,30.10,10.0,Calm,Calm,-,N/A,,Clear,0,2013-01-19 21:53:00
3:53 PM,73.9,19.9,13,30.09,10.0,Calm,Calm,-,N/A,,Clear,0,2013-01-19 22:53:00
4:53 PM,73.0,19.9,14,30.09,10.0,West,4.6,-,N/A,,Clear,260,2013-01-19 23:53:00
5:53 PM,69.1,21.9,17,30.10,10.0,Calm,Calm,-,N/A,,Clear,0,2013-01-20 00:53:00
6:53 PM,64.0,23.0,21,30.11,10.0,Calm,Calm,-,N/A,,Clear,0,2013-01-20 01:53:00
7:53 PM,61.0,24.1,24,30.12,10.0,Calm,Calm,-,N/A,,Clear,0,2013-01-20 02:53:00
8:53 PM,60.1,24.1,25,30.13,10.0,North,3.5,-,N/A,,Clear,10,2013-01-20 03:53:00
10:53 PM,51.1,27.0,39,30.13,10.0,SW,3.5,-,N/A,,Clear,230,2013-01-20 05:53:00
11:53 PM,51.1,26.1,38,30.12,10.0,Calm,Calm,-,N/A,,Clear,0,2013-01-20 06:53:00